This is the latest recevied weather packets stored in our database for station/object KB0BS-13. If no packets are shown the sender has not sent any weather packets the latest 10 day(s).
| Time | Temp. | Humidity | Pressure | Rain* | Wind** | Luminosity | Snow |
|---|---|---|---|---|---|---|---|
| 1777757009 | 8.33° C | 35% | 1014.9 hPa | 0 mm | - | 360 W/m² | - |
| 1777756706 | 8.89° C | 36% | 1015 hPa | 0 mm | - | 371 W/m² | - |
| 1777756401 | 8.89° C | 33% | 1015 hPa | 0 mm | - | 384 W/m² | - |
| 1777756099 | 8.33° C | 38% | 1015 hPa | 0 mm | - | 391 W/m² | - |
| 1777755796 | 8.89° C | 37% | 1014.8 hPa | 0 mm | - | 404 W/m² | - |
| 1777755493 | 8.89° C | 33% | 1015 hPa | 0 mm | - | 415 W/m² | - |
| 1777755189 | 8.89° C | 37% | 1014.9 hPa | 0 mm | - | 437 W/m² | - |
| 1777754886 | 8.89° C | 39% | 1015.1 hPa | 0 mm | - | 448 W/m² | - |
| 1777754583 | 8.89° C | 36% | 1015.1 hPa | 0 mm | - | 461 W/m² | - |
| 1777754281 | 8.89° C | 36% | 1015.2 hPa | 0 mm | - | 471 W/m² | - |
| 1777753979 | 8.89° C | 34% | 1015.1 hPa | 0 mm | - | 483 W/m² | - |
| 1777753678 | 8.33° C | 38% | 1015.1 hPa | 0 mm | - | 493 W/m² | - |
| 1777753376 | 8.89° C | 38% | 1015.3 hPa | 0 mm | - | 505 W/m² | - |
| 1777753074 | 8.89° C | 37% | 1015.1 hPa | 0 mm | - | 516 W/m² | - |
| 1777752775 | 9.44° C | 36% | 1015.1 hPa | 0 mm | - | 527 W/m² | - |
| 1777752471 | 9.44° C | 35% | 1015.2 hPa | 0 mm | - | 537 W/m² | - |
| 1777752167 | 9.44° C | 37% | 1015.3 hPa | 0 mm | - | 547 W/m² | - |
| 1777751866 | 8.89° C | 37% | 1015.2 hPa | 0 mm | - | 557 W/m² | - |
| 1777751562 | 8.89° C | 34% | 1015.6 hPa | 0 mm | - | 566 W/m² | - |
| 1777751258 | 8.89° C | 35% | 1015.5 hPa | 0 mm | - | 574 W/m² | - |
| 1777750956 | 9.44° C | 37% | 1015.7 hPa | 0 mm | - | 581 W/m² | - |
| 1777750651 | 8.89° C | 39% | 1015.7 hPa | 0 mm | - | 599 W/m² | - |
| 1777750349 | 8.89° C | 39% | 1015.7 hPa | 0 mm | - | 599 W/m² | - |
| 1777750049 | 8.89° C | 39% | 1015.7 hPa | 0 mm | - | 599 W/m² | - |
| 1777749747 | 8.89° C | 38% | 1015.5 hPa | 0 mm | - | 608 W/m² | - |
* Rain latest hour (hover to see other rain measurements)
** Current wind speed in m/s (hover to see current wind gust speed)